[[{"header":{"parameterUnit":"m.s-1","parameterCategory":1,"la1":30.2991,"la2":30.254,"lo1":-89.0895,"lo2":-89.0444,"dy":0.0017,"dx":0.0017,"nx":28,"ny":28,"refTime":"2023-10-04T09:00:00:Z","depth":0,"parameterNumber":2,"parameterNumberName":"U-component_of_WINDS"},"data":[0,0,0,0,0,0,0,0,0,0,0,0,0,0,0,0,0,0,0,0,0,0,0,0,0,0,0,0,0,0,0,0,0,0,0,0,0,0,0,0,0,0,0,0,0,0,0,0,0,0,0,0,0,0,0,0,0,0,-3.6907,-3.6908,0,-3.6955,-3.6955,-3.6956,-3.6894,-3.6891,-3.6889,-3.6887,-3.6935,-3.6938,-3.6941,0,0,0,0,0,0,0,0,0,0,0,0,0,-3.6764,-3.6766,-3.6907,-3.6908,-3.6908,-3.6955,-3.6955,-3.6956,-3.6894,-3.6891,-3.6889,-3.6886,-3.6933,-3.6937,-3.6941,0,0,0,0,0,0,0,0,0,0,0,0,0,-3.682,-3.6767,-3.6907,-3.6883,-3.6881,-3.6954,-3.6955,-3.6956,-3.6895,-3.6891,-3.6888,-3.6885,-3.6932,-3.6937,-3.6942,-3.704,0,0,-3.6957,-3.696,0,0,0,0,0,0,0,0,-3.6817,-3.6825,-3.6886,-3.6885,-3.6883,-3.6915,-3.6922,-3.6984,-3.6895,-3.689,-3.6887,-3.6883,-3.6931,-3.6936,-3.6952,-3.7043,-3.7045,-3.6958,-3.6961,-3.6963,-3.6964,0,0,0,0,0,0,0,-3.6813,-3.6823,-3.6926,-3.6887,-3.6885,-3.687,-3.6874,-3.6933,-3.6928,-3.689,-3.6885,-3.6892,-3.6929,-3.6947,-3.6952,-3.7045,-3.6958,-3.6962,-3.6965,-3.6967,-3.7219,-3.7223,0,0,0,0,0,0,-3.6812,-3.682,-3.6924,-3.6927,-3.6841,-3.6875,-3.688,-3.6908,-3.6928,-3.6927,-3.6895,-3.6889,-3.694,-3.6947,-3.6954,-3.7069,-3.6963,-3.6968,-3.6971,-3.7216,-3.722,-3.7224,0,0,0,0,0,0,-3.6809,-3.6822,-3.6922,-3.6873,-3.6884,-3.6882,-3.6913,-3.6911,-3.6928,-3.6931,-3.693,-3.6914,-3.6938,-3.6947,-3.7019,-3.707,-3.697,-3.6975,-3.7211,-3.7217,-3.7222,-3.7302,0,0,0,0,0,0,-3.6805,-3.6821,-3.6858,-3.6874,-3.6887,-3.6987,-3.6916,-3.6914,-3.6937,-3.693,-3.6949,-3.6949,-3.6936,-3.7012,-3.7024,-3.7075,-3.6978,-3.7207,-3.7214,-3.722,-3.7294,-3.7309,-3.7322,0,0,0,0,0,-3.68,-3.6879,-3.686,-3.6873,-3.6934,-3.699,-3.6998,-3.6981,-3.6942,-3.6979,-3.6981,-3.6948,-3.7064,-3.702,-3.7033,-3.7086,-3.7203,-3.7212,-3.722,-3.7288,-3.7306,-3.7322,0,0,0,0,0,0,-3.6868,-3.688,-3.686,-3.6946,-3.6968,-3.698,-3.7026,-3.7001,-3.7034,-3.7026,-3.7004,-3.7009,-3.7087,-3.7094,-3.7046,-3.7183,-3.7127,-3.7138,-3.7174,-3.7192,-3.7205,-3.72,-3.6983,0,0,0,0,0,-3.6894,-3.6939,-3.6947,-3.7022,-3.7034,-3.7029,-3.7053,-3.7038,-3.706,-3.7068,-3.7076,-3.7098,-3.7139,-3.7166,-3.7204,-3.7297,-3.7299,-3.734,-3.7354,-3.7365,-3.7374,-3.7423,-3.7441,-3.7251,-3.7251,-3.7251,0,0,-3.6945,-3.6958,-3.6987,-3.7036,-3.7051,-3.7098,-3.7036,-3.7089,-3.7123,-3.7076,-3.7144,-3.7152,-3.7175,-3.7258,-3.7294,-3.7266,-3.7428,-3.7376,-3.7384,-3.7387,-3.7433,-3.7451,-3.7467,-3.7257,-3.7256,-3.7255,0,0,-3.7063,-3.7078,-3.7141,-3.7158,-3.7182,-3.7179,-3.7194,-3.7211,-3.7213,-3.7282,-3.7248,-3.729,-3.7361,-3.7379,-3.7397,-3.7525,-3.7495,-3.7538,-3.7609,-3.7657,-3.7671,-3.7684,-3.7728,-3.7745,-3.7548,-3.7548,-3.7548,0,-3.7124,-3.7194,-3.7177,-3.7232,-3.7254,-3.7216,-3.728,-3.7297,-3.7332,-3.7348,-3.7317,-3.7406,-3.7419,-3.7505,-3.7537,-3.7554,-3.757,-3.7534,-3.7671,-3.7684,-3.7696,-3.7737,-3.7754,-3.7553,-3.7552,-3.7552,-3.7551,0,-3.7267,-3.7316,-3.7365,-3.74,-3.7428,-3.7488,-3.748,-3.7511,-3.7495,-3.7495,-3.7566,-3.7581,-3.7621,-3.7641,-3.7626,-3.7726,-3.7707,-3.7674,-3.7616,-3.7719,-3.7757,-3.7773,-3.756,-3.7558,-3.7557,-3.7556,0,0,-3.7426,-3.7453,-3.7471,-3.7486,-3.7512,-3.7549,-3.7607,-3.7647,-3.7673,-3.77,-3.7748,-3.781,-3.778,-3.7801,-3.7788,-3.7831,-3.793,-3.7792,-3.7793,-3.7815,-3.8039,-3.8062,-3.808,-3.7912,-3.7915,-3.7917,-3.8036,0,-3.7542,-3.7642,-3.763,-3.7726,-3.777,-3.7736,-3.7787,-3.7808,-3.781,-3.7848,-3.7851,-3.7895,-3.7852,-3.7865,-3.7906,-3.7909,-3.7974,-3.7901,-3.7955,-3.7957,-3.7947,-3.8101,-3.8125,-3.8236,-3.8051,-3.8054,-3.8056,0,-3.7691,-3.7723,-3.7823,-3.7842,-3.786,-3.7906,-3.7941,-3.7979,-3.8003,-3.8001,-3.8026,-3.8007,-3.8065,-3.801,-3.8089,-3.804,-3.8062,-3.8068,-3.8071,-3.8073,-3.801,-3.8105,-3.8271,-3.8287,-3.808,-3.8078,-3.8076,0,-3.7794,-3.7863,-3.7932,-3.7947,-3.797,-3.8003,-3.8015,-3.8035,-3.806,-3.8092,-3.8108,-3.8147,-3.8167,-3.8198,-3.8189,-3.8149,-3.8271,-3.8214,-3.827,-3.827,-3.8294,-3.8292,-3.8464,-3.8313,-3.8313,-3.8313,-3.8313,0,-3.7924,-3.7986,-3.7978,-3.802,-3.8089,-3.8075,-3.8144,-3.8151,-3.817,-3.8213,-3.8187,-3.8227,-3.8215,-3.8255,-3.8249,-3.8316,-3.8326,-3.8326,-3.8323,-3.8327,-3.8326,-3.8338,-3.8329,-3.8317,-3.8316,-3.8315,-3.8315,0,-3.8049,-3.8047,-3.8119,-3.8137,-3.8143,-3.8192,-3.8207,-3.8247,-3.8248,-3.8303,-3.8315,-3.8317,-3.8363,-3.8358,-3.841,-3.8406,-3.8488,-3.8477,-3.848,-3.8477,-3.8532,-3.8526,-3.8715,-3.8739,-3.8575,-3.8577,-3.8578,0,-3.813,-3.8177,-3.82,-3.8227,-3.8241,-3.8285,-3.8311,-3.83,-3.8328,-3.8359,-3.8395,-3.8439,-3.8473,-3.8549,-3.8555,-3.8595,-3.8583,-3.8647,-3.8589,-3.8591,-3.8582,-3.8578,-3.8582,-3.8657,-3.8659,-3.8661,-3.8662,0,-3.8275,-3.8272,-3.8309,-3.8348,-3.8379,-3.8409,-3.8436,-3.8459,-3.8451,-3.8484,-3.8531,-3.8558,-3.8612,-3.8656,-3.8694,-3.8706,-3.8683,-3.8681,-3.8696,-3.8698,-3.8697,-3.8697,-3.8508,-3.8676,-3.8674,-3.8673,-3.8673,-3.8672,-3.8379,-3.8419,-3.8442,-3.8485,-3.8504,-3.853,-3.8568,-3.8575,-3.8614,-3.8657,-3.8649,-3.8702,-3.8725,-3.8774,-3.879,-3.8831,-3.8808,-3.883,-3.8835,-3.884,-3.8845,-3.8693,-3.8839,-3.8838,-3.8838,-3.8838,-3.8837,0,-3.852,-3.8533,-3.8574,-3.8612,-3.8647,-3.8624,-3.8652,-3.8682,-3.8729,-3.8754,-3.8788,-3.8843,-3.8886,-3.8896,-3.8937,-3.8969,-3.8959,-3.898,-3.8976,-3.8979,-3.8864,-3.8847,-3.8986,-3.8986,-3.8986,-3.8986,-3.8986,-3.8986,-3.8597,-3.8664,-3.8664,-3.874,-3.8752,-3.8804,-3.8822,-3.8846,-3.8865,-3.8928,-3.8963,-3.897,-3.8989,-3.9031,-3.907,-3.9072,-3.9087,-3.9112,-3.9109,-3.9002,-3.8987,-3.8972,-3.8955,-3.9116,-3.9116,-3.922,-3.9221,-3.9221]},{"header":{"parameterUnit":"m.s-1","parameterCategory":1,"la1":30.2991,"la2":30.254,"lo1":-89.0895,"lo2":-89.0444,"dy":0.0017,"dx":0.0017,"nx":28,"ny":28,"refTime":"2023-10-04T09:00:00:Z","depth":0,"parameterNumber":3,"parameterNumberName":"V-component_of_WINDS"},"data":[0,0,0,0,0,0,0,0,0,0,0,0,0,0,0,0,0,0,0,0,0,0,0,0,0,0,0,0,0,0,0,0,0,0,0,0,0,0,0,0,0,0,0,0,0,0,0,0,0,0,0,0,0,0,0,0,0,0,3.0627,3.0627,0,3.0632,3.0632,3.0632,3.0637,3.0637,3.0637,3.0637,3.0642,3.0642,3.0642,0,0,0,0,0,0,0,0,0,0,0,0,0,3.0621,3.0621,3.0627,3.0627,3.0627,3.0632,3.0632,3.0632,3.0637,3.0637,3.0637,3.0637,3.0642,3.0642,3.0642,0,0,0,0,0,0,0,0,0,0,0,0,0,3.0624,3.0621,3.0627,3.063,3.063,3.0632,3.0632,3.0632,3.0637,3.0637,3.0637,3.0638,3.0641,3.0642,3.0642,3.064,0,0,3.0642,3.0642,0,0,0,0,0,0,0,0,3.0624,3.0624,3.0629,3.063,3.063,3.0634,3.0631,3.0634,3.0637,3.0635,3.0637,3.0638,3.0639,3.0639,3.064,3.064,3.064,3.0642,3.0642,3.0642,3.0642,0,0,0,0,0,0,0,3.0624,3.0624,3.0629,3.063,3.063,3.0631,3.0632,3.0632,3.0636,3.0635,3.0635,3.0636,3.0639,3.064,3.064,3.064,3.0642,3.0642,3.0642,3.0642,3.0639,3.0639,0,0,0,0,0,0,3.0623,3.0624,3.0628,3.0629,3.0627,3.0631,3.0632,3.0633,3.0636,3.0637,3.0636,3.0636,3.064,3.064,3.064,3.0638,3.0642,3.0642,3.0642,3.0639,3.0639,3.0639,0,0,0,0,0,0,3.0623,3.0623,3.0628,3.0626,3.0627,3.0631,3.0632,3.0633,3.0633,3.0637,3.0637,3.0636,3.064,3.064,3.064,3.0638,3.0642,3.0642,3.0639,3.0639,3.0639,3.0634,0,0,0,0,0,0,3.0623,3.0623,3.0623,3.0626,3.0627,3.0628,3.0632,3.0633,3.0634,3.0634,3.0637,3.0637,3.064,3.064,3.064,3.0638,3.0642,3.0639,3.0639,3.0639,3.0634,3.0634,3.0633,0,0,0,0,0,3.0623,3.0621,3.0623,3.0623,3.0627,3.0628,3.0628,3.0632,3.0633,3.0633,3.0635,3.0637,3.0639,3.064,3.064,3.0638,3.0639,3.0639,3.0639,3.0635,3.0634,3.0633,0,0,0,0,0,0,3.0616,3.0621,3.0623,3.0623,3.0625,3.0629,3.0628,3.0631,3.0632,3.0632,3.0636,3.0636,3.0636,3.0637,3.0638,3.0637,3.0639,3.0639,3.0636,3.0635,3.0635,3.0634,3.0642,0,0,0,0,0,3.0615,3.0616,3.062,3.0619,3.062,3.0624,3.0625,3.0627,3.0629,3.063,3.0632,3.0634,3.0635,3.0635,3.0636,3.0635,3.0635,3.0634,3.0633,3.0633,3.0632,3.0632,3.0631,3.0638,3.0638,3.0638,0,0,3.0612,3.0615,3.0615,3.0618,3.062,3.0621,3.0625,3.0625,3.0626,3.063,3.063,3.0632,3.0634,3.0633,3.0633,3.0634,3.0631,3.0632,3.0632,3.0632,3.0632,3.0631,3.063,3.0638,3.0638,3.0638,0,0,3.0607,3.061,3.0609,3.0611,3.0614,3.0617,3.0617,3.062,3.0622,3.0622,3.0625,3.0626,3.0627,3.0629,3.0629,3.0626,3.0628,3.0626,3.0623,3.0622,3.0622,3.0621,3.062,3.0619,3.0626,3.0626,3.0626,0,3.0603,3.0605,3.0609,3.0609,3.061,3.0615,3.0615,3.0616,3.0619,3.062,3.0621,3.0623,3.0625,3.0625,3.0624,3.0624,3.0624,3.0625,3.0622,3.0621,3.0621,3.0619,3.0619,3.0625,3.0625,3.0625,3.0625,0,3.0599,3.06,3.06,3.0603,3.0604,3.0604,3.0608,3.0609,3.0611,3.0614,3.0614,3.0616,3.0618,3.0618,3.062,3.0618,3.0619,3.0621,3.0623,3.062,3.0619,3.0618,3.0625,3.0625,3.0625,3.0625,0,0,3.059,3.0596,3.0596,3.0598,3.0602,3.0602,3.0603,3.0605,3.0605,3.0607,3.0607,3.0609,3.0611,3.0612,3.0614,3.0614,3.0611,3.0616,3.0616,3.0615,3.0609,3.0607,3.0606,3.0612,3.0612,3.0612,3.0608,0,3.0586,3.0587,3.0591,3.0591,3.0592,3.0596,3.0597,3.0599,3.0601,3.0602,3.0605,3.0606,3.0608,3.0609,3.0609,3.0611,3.0609,3.0611,3.0612,3.0612,3.0611,3.0606,3.0604,3.06,3.0608,3.0608,3.0608,0,3.0581,3.0583,3.0583,3.0587,3.0588,3.0588,3.0591,3.0592,3.0594,3.0596,3.0598,3.06,3.0601,3.0603,3.0604,3.0605,3.0606,3.0607,3.0607,3.0607,3.061,3.0605,3.0599,3.0599,3.0607,3.0607,3.0607,0,3.0574,3.0577,3.0578,3.0579,3.0584,3.0584,3.0586,3.0589,3.059,3.0592,3.0593,3.0595,3.0596,3.0597,3.06,3.0602,3.06,3.0603,3.0601,3.0601,3.06,3.06,3.0594,3.0601,3.0601,3.0601,3.0601,0,3.0568,3.0568,3.0575,3.0575,3.0575,3.058,3.0579,3.0582,3.0584,3.0585,3.0589,3.059,3.0594,3.0595,3.0597,3.0597,3.0598,3.0599,3.06,3.0598,3.0598,3.0599,3.0599,3.0601,3.0601,3.0601,3.0601,0,3.0561,3.0565,3.0566,3.0571,3.0572,3.0572,3.0576,3.0576,3.0579,3.058,3.0581,3.0585,3.0586,3.059,3.0592,3.0593,3.0593,3.0594,3.0592,3.0592,3.059,3.059,3.0584,3.0583,3.0591,3.0591,3.0591,0,3.0557,3.0557,3.0562,3.0563,3.0565,3.0567,3.0568,3.0573,3.0574,3.0577,3.0577,3.0579,3.0581,3.0583,3.0586,3.0587,3.0588,3.0586,3.0589,3.0588,3.0588,3.0588,3.0588,3.0585,3.0585,3.0585,3.0585,0,3.0549,3.0552,3.0554,3.0557,3.0558,3.0561,3.0563,3.0564,3.0569,3.057,3.0572,3.0573,3.0575,3.0577,3.0579,3.0581,3.0584,3.0584,3.0584,3.0583,3.0581,3.0582,3.059,3.0584,3.0584,3.0584,3.0585,3.0585,3.0543,3.0544,3.0548,3.055,3.0552,3.0555,3.0556,3.0559,3.0561,3.0563,3.0566,3.0567,3.057,3.0574,3.0575,3.0576,3.0578,3.0577,3.0577,3.0577,3.0576,3.0582,3.0577,3.0577,3.0577,3.0577,3.0577,0,3.0536,3.0539,3.0541,3.0545,3.0547,3.055,3.0553,3.0554,3.0555,3.0558,3.056,3.0562,3.0564,3.0567,3.0569,3.0569,3.0571,3.057,3.057,3.057,3.0575,3.0575,3.0569,3.0569,3.0569,3.0569,3.0569,3.0569,3.0533,3.0534,3.0536,3.0539,3.0542,3.0543,3.0545,3.0547,3.0549,3.0552,3.0553,3.0556,3.0559,3.0561,3.0563,3.0564,3.0564,3.0563,3.0564,3.0569,3.057,3.057,3.057,3.0563,3.0563,3.0559,3.0559,3.0559]}]]